Location: Newark
(28.9833°N, 10.0667°W)
Time: 19:51:29
(UTC+00:00)

Hubble Space Telescope - Pass Details

Date: 15 December 2019
Orbit: 536 x 540 km, 28.5° (Epoch: 23 January)

Event Time Altitude Azimuth Distance (km) Brightness Sun altitude
Exits shadow 05:04:08 24° 132° (SE) 1,119 2.9 -30.1°
Drops below altitude 10° 05:06:37 10° 99° (E) 1,785 4.3 -29.6°
Sets 05:09:06 0° 88° (E) 2,677 5.5 -29.1°
